OBJECT C, 62731

Orbit data source: Space-Track

You're viewing an Uncataloged Satellite

Recently launched and/or uncataloged satellites may have evolving metadata. Metadata may include but not limited to: Owner, Maufacturer, Bus, Motor, and Mission.

OBJECT C, 62731 is a satellite owned by Yunyao yuhang (CN) in SSO that was launched on Mon, 20 Jan 2025 UTC via a GUSHENXING 1 launch vehicle from the Jiuquan Satellite Launch Center, China (JSC). Unknown objects in Earth's orbit typically refer to objects detected orbiting the Earth but have not yet been identified or cataloged. These objects could be anything from previously untracked satellites, spent rocket stages, debris from satellite collisions, or even natural meteoroids temporarily captured by Earth's gravity.

Loading next visibility...
OBJECT C details
Identifier
62731, 2025-013C
Orbit
SSO
Last TLE update8 hours ago
Origin
Flag of CNYunyao yuhang (CN / PRC)
ManufacturerYunyao yuhang
MissionOperational spacecraft
Bus & MotorYY-1, Unknown motor
Mass~50 kg wet, ~50 kg dry
Launch date (UTC)
2025-01-20 (2 weeks ago)
Launch vehicle
GUSHENXING 1
Launch site
Jiuquan Satellite Launch Center, China (JSC)
Object typeUnknown
Shape & HBRUnknown
Radar Cross SectionMedium (>0.1 m² and <1 m²)

Expand to show TLE details & history

TLE from 8 hours ago
0 OBJECT C
1 62731U 25013C   25035.84633573  .00008540  00000-0  53305-3 0  9990
2 62731  97.6126 202.8253 0013833 231.0808 128.9188 15.09666557  2339
Epoch: 2025-02-04T20:18Z
Definitive object data (Epoch: 2025-02-04T20:18:43.407Z)
Latitude-0.00003°
Longitude122.89867°
Altitude546.307 km
Speed7.586 km/s
True Right ascension13h 31m 18s
True Declination0° 00' 00"
Sunlit
Object was in full shadow at TLE epoch
Visualization TLE readout
Latitude-19.28588°
Longitude125.89005°
Altitude548.089 km
Speed7.585 km/s
Apparent Right ascension15h 36m 06s
Apparent Declination-33° 33' 51"
Sunlit
Object is in daylight
Visualization observer readout
Local Sidereal Time06:12:36
Azimuth91.01° ESE
Elevation-58.27°
Doppler factor1
Orbital elements
Apogee altitude543.768 km
Perigee altitude524.645 km
Semi-major axis6,912.344 km
Eccentricity0.0013833
Inclination97.6126°
RAAN202.8253°
Arg. of periapsis231.0808°
True anomaly129.042°
Mean anomaly128.9188°
Eccentric anomaly128.98041°
Mean motion3.77664 °/min
BSTAR0.00053305
Orbital period95.32 mins
Loading maneuver chart data...
Loading historical data...
Loading historical data...
Loading historical data...
Loading historical data...
Loading historical data...
Loading historical data...
Loading historical data...
Other satellites on launch #13 in the year 2025 (2025-01-20 UTC)

OBJECT C Visibility forecast

Observer location: undefined°, undefined

Span
Click to sort rows by Start time (UTC) header in descending order
Start Az.
Max El. time (UTC)
Max El. Az.
Max El.
End time (UTC)
End Az.
6 mins2025-02-05 10:45:48.676Z148.103° SSE2025-02-05 10:48:48.676Z61.769° ENE39.065°2025-02-05 10:51:48.676Z359.324° N
6 mins2025-02-05 23:55:48.676Z10.541° NNE2025-02-05 23:58:48.676Z204.218° SW42.667°2025-02-06 00:01:48.676Z195.102° SSW
|